Aérodrome :
LOGIN :

S'inscrire | Disclaimer

   EN    FR    IT 

 










Légende :    VFR   VFR Marginal   IFR   IFR Intensif   IFR Très Intensif
Visi : 
Plafond : 
>= 8 km
>= 3000ft
5 à 8 km
1000 à 3000 ft
1500m à 5 km
500 à 1000 ft
800 à 1500m
200 à 500 ft
< 800m
< 200 ft
Symboles :   Orages  Brouillard  Fortes neiges  Fortes précipitations  Vent > 20 kt
SIGMETs :   Divers  Orages  Givrage  Turbulence  Onde Orograph.  Cendres Volcan.







- Altitude de l'aérodrome : 124 ft
- Code IATA : AVN
- Voir les cartes d'approche


LFMV - Avignon Caumont

DERNIER METAR :
  • 241000Z AUTO 35008KT 300V050 CAVOK 33/18 Q1016 NOSIG

METARs EXPIRÉS :
  • 240930Z AUTO 34010KT 300V010 CAVOK 32/18 Q1016 NOSIG
  • 240900Z AUTO 34009KT 300V020 CAVOK 31/18 Q1016 NOSIG
  • 240830Z AUTO 36011KT CAVOK 30/18 Q1016 NOSIG
  • 240800Z AUTO 36010KT CAVOK 30/18 Q1017 TEMPO 22011KT
  • 240730Z AUTO 35011KT 310V020 CAVOK 29/18 Q1017 TEMPO 22011KT

TAF TAF LFMV
Valide du 23 à 15h jusqu'au 24 à 15h UTC


231400Z 2315/2415 VRB05KT CAVOK
BECMG 2413/2415 22015KT
ATIS : +33 4 90 84 32 84
Pas de NOTAMs connus pour ce terrain.



MET'MAP, la Météo Aéronautique d'un coup d'oeil ! - Copyright ORBIFLY Décembre 2007 - Disclaimer

ORBIFLY MET'MAP TEAM :

Programmation & Développement : Alexandra Zaïnal
Conception & Développement : Baudouin d'Aumeries
Co-Programmation & Développement : Marc-Olivier Méhu
Soutien technique & logistique : Manuel Goepfert

Contact : metmap@orbifly.com




SOURCES & CREDITS :

   NOAA